User: anonymous   Login
Location: Unspecified
(0.0000°N, 0.0000°E)
Time: 19:58:28
(UTC+00:00)
Language:

NOSS 7 (H) - Orbit

View from above orbital plane
View from above orbital plane
View from above satellite
View from above satellite

Ground track
Ground track

The orbit data is extracted from the following two-line orbital elements,

1 16631U 86014H   21136.93335133  .00002518  00000-0  18144-3 0  9996
2 16631  63.2952  38.2025 0952801  75.4578 295.0085 13.48626824 90436
Epoch (UTC): 16 May 2021 22:24:01
Eccentricity: 0.0952801
inclination: 63.2952°
perigee height: 367 km
apogee height: 1787 km
right ascension of ascending node: 38.2025°
argument of perigee: 75.4578°
revolutions per day: 13.48626824
mean anomaly at epoch: 295.0085°
orbit number at epoch: 9043

The dashed part of the orbit path shows where the satellite is in the earth's shadow,  

DLR